Location: Pedholt
(56.0260°N, 10.2097°E)
Time: 11:22:20
(UTC+00:00)

Transit 4A - All Passes

Search period start: 03 August 2021 00:00
Search period end: 13 August 2021 00:00
Orbit: 872 x 972 km, 66.8° (Epoch: 02 August)

Date Brightness Start Highest point End Pass type
(mag) Time Alt. Az. Time Alt. Az. Time Alt. Az.
03 Aug - 00:39:23 10° WSW 00:45:10 57° NW 00:50:57 10° NE visible
03 Aug - 02:27:30 10° WNW 02:32:38 31° N 02:37:46 10° NE visible
03 Aug - 04:15:18 10° NW 04:20:31 32° NNE 04:25:47 10° ENE daylight
03 Aug - 06:02:00 10° NW 06:07:51 66° NE 06:13:44 10° ESE daylight
03 Aug - 07:48:37 10° NW 07:53:58 38° WSW 07:59:22 10° S daylight
03 Aug - 21:19:40 10° SE 21:22:49 15° ESE 21:25:55 10° ENE visible
03 Aug - 23:02:17 10° SSW 23:08:02 61° SE 23:13:48 10° NE visible
04 Aug - 00:48:59 10° WSW 00:54:38 47° NNW 01:00:17 10° NE visible
04 Aug - 02:37:13 10° WNW 02:42:16 29° N 02:47:21 10° NE visible
04 Aug - 04:24:45 10° NW 04:30:07 36° NNE 04:35:31 10° E daylight
04 Aug - 06:11:19 10° NW 06:17:12 83° NE 06:23:09 10° SE daylight
04 Aug - 07:58:09 10° WNW 08:03:03 28° WSW 08:08:00 10° S daylight
04 Aug - 21:27:32 10° SSE 21:31:45 21° ESE 21:35:57 10° ENE visible
04 Aug - 23:11:26 10° SW 23:17:18 79° SE 23:23:09 10° NE visible
05 Aug - 00:58:39 10° W 01:04:09 40° NNW 01:09:40 10° NE visible
05 Aug - 02:46:53 10° WNW 02:51:55 29° N 02:56:59 10° ENE daylight
05 Aug - 04:34:10 10° NW 04:39:41 41° NNE 04:45:14 10° E daylight
05 Aug - 06:20:39 10° NW 06:26:31 78° SW 06:32:27 10° SE daylight
05 Aug - 08:07:51 10° WNW 08:12:04 21° WSW 08:16:20 10° SSW daylight
05 Aug - 21:35:53 10° S 21:40:47 28° ESE 21:45:39 10° ENE visible
05 Aug - 23:20:43 10° SW 23:26:37 82° NW 23:32:29 10° NE visible
06 Aug - 01:08:22 10° W 01:13:43 35° NNW 01:19:04 10° NE visible
06 Aug - 02:56:30 10° NW 03:01:34 29° N 03:06:40 10° ENE daylight
06 Aug - 04:43:31 10° NW 04:49:11 48° NNE 04:54:55 10° ESE daylight
06 Aug - 06:30:01 10° NW 06:35:46 60° SW 06:41:37 10° SSE daylight
06 Aug - 08:17:53 10° WNW 08:21:01 15° WSW 08:24:12 10° SW daylight
06 Aug - 21:44:30 10° S 21:49:51 38° ESE 21:55:11 10° NE visible
06 Aug - 23:30:09 10° WSW 23:35:58 66° NW 23:41:49 10° NE visible
07 Aug - 01:18:06 10° WNW 01:23:18 32° NNW 01:28:32 10° NE visible
07 Aug - 03:06:03 10° NW 03:11:12 31° NNE 03:16:23 10° ENE daylight
07 Aug - 04:52:51 10° NW 04:58:39 58° NE 05:04:30 10° ESE daylight
07 Aug - 06:39:24 10° NW 06:44:57 45° WSW 06:50:35 10° SSE daylight
07 Aug - 08:29:33 10° W 08:29:55 10° W 08:30:16 10° WSW daylight
07 Aug - 20:12:03 10° ESE 20:13:57 12° E 20:15:52 10° E visible
07 Aug - 21:53:22 10° SSW 21:59:00 51° ESE 22:04:38 10° NE visible
07 Aug - 23:39:41 10° WSW 23:45:25 53° NW 23:51:09 10° NE visible
08 Aug - 01:27:50 10° WNW 01:32:56 30° N 01:38:04 10° NE visible
08 Aug - 03:15:33 10° NW 03:20:50 33° NNE 03:26:09 10° E daylight
08 Aug - 05:02:11 10° NW 05:08:03 72° NE 05:14:00 10° SE daylight
08 Aug - 06:48:53 10° NW 06:54:05 34° WSW 06:59:23 10° S daylight
08 Aug - 20:19:17 10° SE 20:22:52 17° ESE 20:26:26 10° ENE visible
08 Aug - 22:02:25 10° SSW 22:08:13 67° SE 22:14:01 10° NE visible
08 Aug - 23:49:18 10° WSW 23:54:54 45° NNW 00:00:30 10° NE visible
09 Aug - 01:37:33 10° WNW 01:42:35 29° N 01:47:40 10° ENE visible
09 Aug - 03:24:59 10° NW 03:30:24 37° NNE 03:35:53 10° E daylight
09 Aug - 05:11:31 10° NW 05:17:25 89° NE 05:23:23 10° SE daylight
09 Aug - 06:58:27 10° WNW 07:03:09 25° WSW 07:07:54 10° SSW daylight
09 Aug - 20:27:22 10° SSE 20:31:50 23° ESE 20:36:18 10° ENE visible
09 Aug - 22:11:37 10° SW 22:17:29 86° SE 22:23:21 10° NE visible
09 Aug - 23:59:00 10° W 00:04:26 38° NNW 00:09:53 10° NE visible
10 Aug - 01:47:12 10° WNW 01:52:14 29° N 01:57:19 10° ENE visible
10 Aug - 03:34:22 10° NW 03:39:57 43° NNE 03:45:35 10° E daylight
10 Aug - 05:20:51 10° NW 05:26:42 72° SW 05:32:38 10° SSE daylight
10 Aug - 07:08:14 10° WNW 07:12:09 19° WSW 07:16:06 10° SSW daylight
10 Aug - 20:35:49 10° S 20:40:53 31° ESE 20:45:57 10° NE visible
10 Aug - 22:20:57 10° SW 22:26:49 76° NW 22:32:41 10° NE visible
11 Aug - 00:08:43 10° W 00:14:00 34° NNW 00:19:19 10° NE visible
11 Aug - 01:56:48 10° NW 02:01:53 30° N 02:07:01 10° ENE visible
11 Aug - 03:43:44 10° NW 03:49:26 51° NNE 03:55:14 10° ESE daylight
11 Aug - 05:30:13 10° NW 05:35:56 55° WSW 05:41:44 10° SSE daylight
11 Aug - 07:18:29 10° WNW 07:21:05 13° WSW 07:23:42 10° SW daylight
11 Aug - 20:44:32 10° S 20:49:59 42° ESE 20:55:26 10° NE visible
11 Aug - 22:30:25 10° WSW 22:36:13 61° NW 22:42:01 10° NE visible
12 Aug - 00:18:27 10° WNW 00:23:37 31° NNW 00:28:48 10° NE visible
12 Aug - 02:06:19 10° NW 02:11:31 32° NNE 02:16:45 10° ENE visible
12 Aug - 03:53:04 10° NW 03:58:54 63° NE 04:04:48 10° ESE daylight
12 Aug - 05:39:38 10° NW 05:45:06 41° WSW 05:50:38 10° S daylight
12 Aug - 19:11:21 10° SE 19:14:00 13° ESE 19:16:39 10° ENE daylight
12 Aug - 20:53:27 10° SSW 20:59:10 56° ESE 21:04:51 10° NE visible
12 Aug - 22:40:00 10° WSW 22:45:39 50° NNW 22:51:22 10° NE visible
